Home > Weather > Kolbotn > Past weeks

Flag for Norway Past Weather in Kolbotn, Norway — Yesterday and Last 2 Weeks

Now
43 °F

Light rain. Fog.


Feels Like: 40 °F
Forecast: 49 / 58 °F
Wind: 5 mph from Northeast

Location: Statfjord B

Current Time: May 28, 2016 at 6:09:01 AM

Latest Report: May 28, 2016 at 5:20 AM


Visibility: 0 mi

Pressure: 30.18 "Hg

Humidity: 100%

Dew Point: 43 °F

Location of KolbotnLocation

Past Weather in Kolbotn — Graph

°F

Kolbotn Temperature Yesterday

Maximum temperature yesterday: 48 °F (at 8:20 AM)
Minimum temperature yesterday: 45 °F (at 10:50 PM)
Average temperature yesterday: 47 °F

High & Low Weather Summary for the Past Weeks

 TemperatureHumidityPressure
High55 °F (May 22, 7:20 PM)100% (May 20, 4:20 AM)30.30 "Hg (May 20, 4:20 AM)
Low37 °F (May 14, 12:50 AM)49% (May 19, 4:20 AM)29.47 "Hg (May 21, 9:50 PM)
Average45 °F79%29.94 "Hg
* Reported May 13 4:20 AM — May 28 4:50 AM, Kolbotn, Weather by CustomWeather, © 2016

Note: Actual official high and low records may vary slightly from our data, if they occured in-between our weather recording intervals... More about our weather records

Advertising

Kolbotn Weather History for the Previous 24 Hours

Scroll right to see more
 ConditionsComfort  
Time TempWeatherWind HumidityBarometerVisibility
4:50 AM
Sat, May 28
43 °FLight rain. Fog.5 mph100%30.18 "Hg0 mi
4:20 AM45 °FLight rain. Fog.5 mph100%30.18 "Hg0 mi
3:50 AM45 °FLight rain. Fog.7 mph100%30.18 "Hg0 mi
3:20 AM45 °FLight rain. Fog.8 mph100%30.18 "Hg0 mi
2:50 AM45 °FLight rain. Fog.9 mph100%30.18 "Hg0 mi
2:20 AM45 °FLight rain. Fog.9 mph100%30.18 "Hg0 mi
1:50 AM45 °FLight rain. Fog.9 mph100%30.18 "Hg1 mi
1:20 AM45 °FDrizzle. Fog.10 mph100%30.18 "Hg1 mi
12:50 AM45 °FDrizzle. Fog.12 mph100%30.21 "Hg0 mi
12:20 AM45 °FSprinkles. Fog.12 mph100%30.18 "Hg0 mi
11:50 PM
Fri, May 27
45 °FSprinkles. Fog.12 mph100%30.21 "Hg1 mi
11:20 PM45 °FPassing clouds.10 mph100%30.21 "HgN/A
10:50 PM45 °FFog.10 mph100%30.21 "Hg2 mi
10:20 PM46 °FPartly sunny.12 mph93%30.21 "HgN/A
9:50 PM46 °FLow clouds.13 mph93%30.21 "HgN/A
9:20 PM46 °FLow clouds.14 mph93%30.18 "HgN/A
8:50 PM46 °FPartly sunny.14 mph93%30.21 "HgN/A
8:20 PM46 °FLow clouds.14 mph93%30.21 "HgN/A
7:50 PM46 °FLow clouds.13 mph93%30.18 "HgN/A
7:20 PM46 °FPartly sunny.13 mph93%30.18 "HgN/A
6:50 PM46 °FLow clouds.12 mph93%30.21 "HgN/A
6:20 PM46 °FLow clouds.12 mph93%30.18 "HgN/A
5:50 PM46 °FPartly sunny.10 mph93%30.21 "HgN/A
5:20 PM46 °FPartly sunny.8 mph93%30.21 "HgN/A
4:50 PM46 °FLow clouds.8 mph93%30.21 "HgN/A
4:20 PM46 °FPartly sunny.10 mph93%30.21 "HgN/A
3:50 PM46 °FLow clouds.12 mph93%30.21 "HgN/A
3:20 PM48 °FPartly sunny.12 mph87%30.21 "HgN/A
2:50 PM48 °FLow clouds.13 mph94%30.21 "HgN/A
2:20 PM48 °FLow clouds.14 mph87%30.21 "HgN/A
1:50 PM48 °FPartly sunny.14 mph94%30.21 "HgN/A
1:20 PM48 °FPartly sunny.14 mph94%30.21 "HgN/A
12:50 PM48 °FLow clouds.14 mph94%30.21 "HgN/A
12:20 PM46 °FLow clouds.14 mph93%30.21 "HgN/A
11:50 AM46 °FLow clouds.14 mph93%30.18 "HgN/A
11:20 AM46 °FLow clouds.14 mph93%30.18 "HgN/A
10:50 AM46 °FLow clouds.14 mph93%30.18 "HgN/A
10:20 AM46 °FLow clouds.13 mph93%30.18 "HgN/A
9:50 AM46 °FLow clouds.13 mph93%30.18 "HgN/A
9:20 AM46 °FLow clouds.13 mph93%30.18 "HgN/A
8:50 AM46 °FLow clouds.14 mph100%30.18 "HgN/A
8:20 AM48 °FLow clouds.15 mph94%30.18 "HgN/A
7:50 AM46 °FLow clouds.15 mph100%30.18 "HgN/A
7:20 AM46 °FLow clouds.16 mph93%30.18 "HgN/A
6:50 AM46 °FLow clouds.16 mph93%30.18 "HgN/A
6:20 AM46 °FLow clouds.16 mph93%30.15 "HgN/A
Weather by CustomWeather, © 2016

See weather overviewHow to use our weather pages